CAPE
0 0 0 0 0 0 0 0 0 0 0 0 0 0 0 0 0 0 0 0 0 0 0 0 0 0 0 0 0 0 0 0 0 0 0 0 0 0 0 0 0 73 290 450 566
0 0 0 0 0 0 0 0 0 0 0 0 0 0 0 0 0 0 0 0 0 0 0 0 0 0 0 0 0 0 0 0 0 0 0 0 0 0 0 0 0 0 5 588 408
0 0 0 0 0 0 0 0 0 0 0 0 0 0 0 0 0 0 0 0 0 0 0 0 0 0 0 0 0 0 0 0 0 0 0 0 0 0 0 0 0 0 0 101 287
0 0 0 0 0 0 0 0 0 0 0 0 0 0 0 0 0 0 0 0 0 0 0 0 0 0 0 0 0 0 0 0 0 0 0 0 0 0 0 0 0 0 0 0 32
0 0 0 0 0 0 0 0 0 0 0 0 0 0 0 0 0 0 0 0 0 0 0 0 0 0 0 0 0 0 0 0 0 0 0 0 0 0 0 0 0 0 0 0 0
0 0 0 0 0 0 0 0 0 0 0 0 0 0 0 0 0 0 0 0 0 0 0 0 0 0 0 0 0 0 0 0 0 0 0 0 0 0 0 0 0 0 0 0 0
0 0 0 0 0 0 0 0 0 0 0 0 0 0 0 0 0 0 0 0 0 0 0 0 0 0 0 0 0 0 0 0 0 0 0 0 0 0 0 0 0 0 0 0 0
0 0 0 0 0 0 0 0 0 0 0 0 0 0 0 0 0 0 0 0 0 0 0 0 0 0 0 0 0 0 0 0 0 0 0 0 0 0 0 0 0 0 0 0 0
0 0 0 0 0 0 0 0 0 0 0 0 0 0 0 0 0 0 0 0 0 0 0 0 0 0 0 0 0 0 0 0 0 0 0 0 0 0 0 0 0 0 0 0 0
0 0 0 0 0 0 0 0 0 0 0 0 0 0 0 0 0 0 0 0 0 0 0 0 0 0 0 0 0 0 0 0 0 0 0 0 0 0 0 0 0 0 0 0 0
0 0 0 0 0 0 0 0 0 0 0 0 0 0 0 0 0 0 0 0 0 0 0 0 0 0 0 0 0 0 0 0 0 0 0 0 0 0 0 0 0 0 0 0 0
0 0 0 0 0 0 0 0 0 0 0 0 0 0 0 0 0 0 0 0 0 0 0 0 0 0 0 0 0 0 0 0 0 0 0 0 0 0 0 0 0 0 0 0 0
0 0 0 0 0 0 0 0 0 0 0 0 0 0 0 0 0 0 0 0 0 0 0 0 0 0 0 0 0 0 0 0 0 0 0 0 0 0 0 0 0 0 0 0 0
0 0 0 0 0 0 0 0 0 0 0 0 0 0 0 0 0 0 0 0 0 0 0 0 0 0 0 0 0 0 0 0 0 0 0 0 0 0 0 0 0 0 0 0 0
0 0 0 0 0 0 0 0 0 0 0 0 0 0 0 0 0 0 0 0 0 0 0 0 0 0 0 0 0 0 0 0 0 0 0 0 0 0 0 0 0 0 0 0 0
0 0 0 0 0 0 0 0 0 0 0 0 0 0 0 0 0 0 0 0 0 0 0 0 0 0 0 0 0 0 0 0 0 0 0 0 0 0 0 0 0 0 0 0 0
0 0 0 0 0 0 0 0 0 0 0 0 0 0 0 0 0 0 0 0 0 0 0 0 0 0 0 0 0 0 0 0 0 0 0 0 0 0 0 0 0 0 0 0 1
2 0 0 0 0 0 0 0 0 0 0 0 0 0 0 0 0 0 0 0 0 0 0 0 0 0 0 0 0 0 0 0 0 0 0 0 0 0 0 0 0 0 0 0 0
4 0 0 0 0 0 0 0 0 0 0 0 0 0 0 0 0 0 0 0 0 0 0 0 0 0 0 0 0 0 0 0 0 0 0 0 0 0 0 0 0 0 0 0 0
7 0 0 0 0 0 0 0 0 0 0 0 0 0 0 0 0 0 0 0 0 0 0 0 0 0 0 0 0 0 0 0 0 0 0 0 0 0 0 0 0 0 0 0 1
4 2 0 0 0 0 0 0 0 0 0 0 0 0 0 0 0 0 0 0 0 0 0 0 0 0 0 0 0 0 0 0 0 0 0 0 0 0 0 0 0 0 0 0 0
12 5 0 0 0 0 0 0 0 0 0 0 0 0 0 0 0 0 0 0 0 0 0 0 0 0 0 0 0 0 0 0 0 0 0 0 0 0 0 0 0 0 0 1 1
22 17 0 0 0 0 0 0 0 0 0 0 0 0 0 0 0 0 0 0 0 0 0 0 0 0 0 0 0 0 0 0 0 0 0 0 0 0 0 0 0 0 0 0 0
42 7 0 4 0 0 0 0 0 0 0 0 0 0 0 0 0 0 0 0 0 0 0 0 0 0 0 0 0 0 0 0 0 0 0 0 0 0 0 0 0 0 0 0 0
43 5 0 2 4 0 0 0 0 0 0 0 0 0 0 0 0 0 0 0 0 0 0 0 0 0 0 0 0 0 0 0 0 0 0 0 0 0 0 0 0 0 0 0 0
48 2 1 1 0 0 0 0 0 0 0 0 0 0 0 0 0 0 0 0 0 0 0 0 0 0 0 0 0 0 0 0 0 0 0 0 0 0 0 0 0 0 0 0 0
63 33 13 1 0 0 0 0 0 0 0 0 0 0 0 0 0 0 0 0 0 0 0 0 0 0 0 0 0 0 0 0 0 0 0 0 0 0 0 0 0 0 0 0 0
CIN
-0 -0 -0 -0 -0 -0 -0 -0 -0 -0 -0 -0 -0 -0 -0 -0 -0 -0 -0 -0 -0 -0 -0 -0 -0 -0 -0 -0 -0 -0 -0 -0 -0 -0 -0 -0 -0 -0 -0 -0 -0 -232 -140 -130 -172
-0 -0 -0 -0 -0 -0 -0 -0 -0 -0 -0 -0 -0 -0 -0 -0 -0 -0 -0 -0 -0 -0 -0 -0 -0 -0 -0 -0 -0 -0 -0 -0 -0 -0 -0 -0 -0 -0 -0 -0 -0 -0 -138 -111 -166
-0 -0 -0 -0 -0 -0 -0 -0 -0 -0 -0 -0 -0 -0 -0 -0 -0 -0 -0 -0 -0 -0 -0 -0 -0 -0 -0 -0 -0 -0 -0 -0 -0 -0 -0 -0 -0 -0 -0 -0 -0 -0 -0 -154 -119
-0 -0 -0 -0 -0 -0 -0 -0 -0 -0 -0 -0 -0 -0 -0 -0 -0 -0 -0 -0 -0 -0 -0 -0 -0 -0 -0 -0 -0 -0 -0 -0 -0 -0 -0 -0 -0 -0 -0 -0 -0 -0 -0 -0 -168
-0 -0 -0 -0 -0 -0 -0 -0 -0 -0 -0 -0 -0 -0 -0 -0 -0 -0 -0 -0 -0 -0 -0 -0 -0 -0 -0 -0 -0 -0 -0 -0 -0 -0 -0 -0 -0 -0 -0 -0 -0 -0 -0 -0 -0
-0 -0 -0 -0 -0 -0 -0 -0 -0 -0 -0 -0 -0 -0 -0 -0 -0 -0 -0 -0 -0 -0 -0 -0 -0 -0 -0 -0 -0 -0 -0 -0 -0 -0 -0 -0 -0 -0 -0 -0 -0 -0 -0 -0 -0
-0 -0 -0 -0 -0 -0 -0 -0 -0 -0 -0 -0 -0 -0 -0 -0 -0 -0 -0 -0 -0 -0 -0 -0 -0 -0 -0 -0 -0 -0 -0 -0 -0 -0 -0 -0 -0 -0 -0 -0 -0 -0 -0 -0 -0
-0 -0 -0 -0 -0 -0 -0 -0 -0 -0 -0 -0 -0 -0 -0 -0 -0 -0 -0 -0 -0 -0 -0 -0 -0 -0 -0 -0 -0 -0 -0 -0 -0 -0 -0 -0 -0 -0 -0 -0 -0 -0 -0 -0 -0
-0 -0 -0 -0 -0 -0 -0 -0 -0 -0 -0 -0 -0 -0 -0 -0 -0 -0 -0 -0 -0 -0 -0 -0 -0 -0 -0 -0 -0 -0 -0 -0 -0 -0 -0 -0 -0 -0 -0 -0 -0 -0 -0 -0 -0
-0 -0 -0 -0 -0 -0 -0 -0 -0 -0 -0 -0 -0 -0 -0 -0 -0 -0 -0 -0 -0 -0 -0 -0 -0 -0 -0 -0 -0 -0 -0 -0 -0 -0 -0 -0 -0 -0 -0 -0 -0 -0 -0 -0 -0
-0 -0 -0 -0 -0 -0 -0 -0 -0 -0 -0 -0 -0 -0 -0 -0 -0 -0 -0 -0 -0 -0 -0 -0 -0 -0 -0 -0 -0 -0 -0 -0 -0 -0 -0 -0 -0 -0 -0 -0 -0 -0 -0 -0 -0
-0 -0 -0 -0 -0 -0 -0 -0 -0 -0 -0 -0 -0 -0 -0 -0 -0 -0 -0 -0 -0 -0 -0 -0 -0 -0 -0 -0 -0 -0 -0 -0 -0 -0 -0 -0 -0 -0 -0 -0 -0 -0 -0 -0 -0
-0 -0 -0 -0 -0 -0 -0 -0 -0 -0 -0 -0 -0 -0 -0 -0 -0 -0 -0 -0 -0 -0 -0 -0 -0 -0 -0 -0 -0 -0 -0 -0 -0 -0 -0 -0 -0 -0 -0 -0 -0 -0 -0 -0 -0
-0 -0 -0 -0 -0 -0 -0 -0 -0 -0 -0 -0 -0 -0 -0 -0 -0 -0 -0 -0 -0 -0 -0 -0 -0 -0 -0 -0 -0 -0 -0 -0 -0 -0 -0 -0 -0 -0 -0 -0 -0 -0 -0 -0 -6
-0 -0 -0 -0 -0 -0 -0 -0 -0 -0 -0 -0 -0 -0 -0 -0 -0 -0 -0 -0 -0 -0 -0 -0 -0 -0 -0 -0 -0 -0 -0 -0 -0 -0 -0 -0 -0 -0 -0 -0 -0 -0 -0 -0 -0
-0 -0 -0 -0 -0 -0 -0 -0 -0 -0 -0 -0 -0 -0 -0 -0 -0 -0 -0 -0 -0 -0 -0 -0 -0 -0 -0 -0 -0 -0 -0 -0 -0 -0 -0 -0 -0 -0 -0 -0 -0 -0 -0 -0 -0
-0 -0 -0 -0 -0 -0 -0 -0 -0 -0 -0 -0 -0 -0 -0 -0 -0 -0 -0 -0 -0 -0 -0 -0 -0 -0 -0 -0 -0 -0 -0 -0 -0 -0 -0 -0 -0 -0 -0 -0 -0 -0 -3 -0 -0
-0 -0 -0 -0 -0 -0 -0 -0 -0 -0 -0 -0 -0 -0 -0 -0 -0 -0 -0 -0 -0 -0 -0 -0 -0 -0 -0 -0 -0 -0 -0 -0 -0 -0 -0 -0 -0 -0 -0 -0 -0 -0 -0 -0 -0
-0 -0 -0 -0 -0 -0 -0 -0 -0 -0 -0 -0 -0 -0 -0 -0 -0 -0 -0 -0 -0 -0 -0 -0 -0 -0 -0 -0 -0 -0 -0 -0 -0 -0 -0 -0 -0 -0 -0 -0 -0 -0 -0 -0 -0
-0 -0 -0 -0 -0 -0 -0 -0 -0 -0 -0 -0 -0 -0 -0 -0 -0 -0 -0 -0 -0 -0 -0 -0 -0 -0 -0 -0 -0 -0 -0 -0 -0 -0 -0 -0 -0 -0 -0 -0 -0 -0 -0 -0 -0
-11 -7 -0 -0 -0 -0 -0 -0 -0 -0 -0 -0 -0 -0 -0 -0 -0 -0 -0 -0 -0 -0 -0 -0 -0 -0 -0 -0 -0 -0 -0 -0 -0 -0 -0 -0 -0 -0 -0 -0 -0 -0 -0 -0 -0
-9 -3 -0 -0 -0 -0 -0 -0 -0 -0 -0 -0 -0 -0 -0 -0 -0 -0 -0 -0 -0 -0 -0 -0 -0 -0 -0 -0 -0 -0 -0 -0 -0 -0 -0 -0 -0 -0 -0 -0 -0 -0 -0 -0 -0
-1 -6 -0 -0 -0 -0 -0 -0 -0 -0 -0 -0 -0 -0 -0 -0 -0 -0 -0 -0 -0 -0 -0 -0 -0 -0 -0 -0 -0 -0 -0 -0 -0 -0 -0 -0 -0 -0 -0 -0 -0 -0 -0 -0 -0
-0 -11 -0 -0 -0 -0 -0 -0 -0 -0 -0 -0 -0 -0 -0 -0 -0 -0 -0 -0 -0 -0 -0 -0 -0 -0 -0 -0 -0 -0 -0 -0 -0 -0 -0 -0 -0 -0 -0 -0 -0 -0 -0 -0 -0
-0 -26 -0 -0 -0 -0 -0 -0 -0 -0 -0 -0 -0 -0 -0 -0 -0 -0 -0 -0 -0 -0 -0 -0 -0 -0 -0 -0 -0 -0 -0 -0 -0 -0 -0 -0 -0 -0 -0 -0 -0 -0 -0 -0 -0
-0 -5 -0 -0 -0 -0 -0 -0 -0 -0 -0 -0 -0 -0 -0 -0 -0 -0 -0 -0 -0 -0 -0 -0 -0 -0 -0 -0 -0 -0 -0 -0 -0 -0 -0 -0 -0 -0 -0 -0 -0 -0 -0 -0 -0
-0 -2 -11 -0 -0 -0 -0 -0 -0 -0 -0 -0 -0 -0 -0 -0 -0 -0 -0 -0 -0 -0 -0 -0 -0 -0 -0 -0 -0 -0 -0 -0 -0 -0 -0 -0 -0 -0 -0 -0 -0 -0 -0 -0 -0
Wind_Speed
24 24 24 25 26 26 26 26 25 25 24 23 22 22 21 22 20 16 17 16 16 18 19 19 17 17 17 16 15 15 13 15 15 20 18 23 26 21 25 26 21 23 20 22 17
24 24 25 25 26 26 27 26 26 25 24 23 22 22 21 21 18 17 15 15 16 18 19 19 17 16 15 15 15 14 15 14 12 18 18 23 26 30 28 30 24 26 23 22 20
23 24 25 26 26 27 27 26 25 24 24 23 22 21 21 20 17 17 12 13 16 18 20 20 11 11 15 14 13 12 15 13 13 16 16 23 27 24 29 30 26 27 28 26 26
24 24 25 26 27 28 27 26 25 25 24 23 22 21 19 13 17 13 12 13 18 19 20 19 19 16 15 15 15 14 10 11 14 13 15 18 22 25 25 31 22 22 25 27 27
25 25 25 26 27 27 27 26 26 25 24 23 21 18 15 15 16 11 11 13 18 19 19 18 19 17 16 14 15 12 13 14 13 9 11 16 17 20 30 32 26 25 24 23 27
25 26 26 26 27 27 26 25 25 24 23 22 19 15 13 18 11 10 11 14 16 18 18 18 17 16 15 14 15 15 10 10 12 7 11 12 18 20 26 27 24 23 24 25 26
25 26 26 26 27 27 26 25 24 22 20 16 12 12 14 7 10 10 11 14 14 16 17 16 17 17 16 15 15 10 13 13 17 12 11 13 16 23 28 27 27 27 27 27 28
26 26 27 27 27 27 26 25 23 20 17 12 11 13 17 14 9 9 9 16 13 13 14 15 16 15 15 15 17 16 15 19 15 15 12 13 13 23 27 29 29 29 30 30 31
27 27 27 28 28 27 26 24 21 18 15 12 12 14 18 11 8 8 9 13 14 12 12 15 15 16 16 17 18 17 18 18 16 14 11 12 14 21 26 28 31 30 32 35 35
29 28 28 28 28 27 27 23 18 19 13 13 15 17 17 9 9 9 10 11 14 15 15 14 14 15 15 17 19 17 17 16 15 13 12 14 14 22 26 28 30 33 36 38 38
30 30 29 29 28 27 24 17 17 18 16 9 12 14 14 12 11 9 9 11 13 15 17 16 12 10 11 12 13 13 14 15 13 12 12 12 13 15 20 28 33 37 39 39 38
30 31 30 30 29 29 19 17 17 18 24 20 26 23 17 11 13 11 9 11 12 13 14 15 6 7 10 14 15 15 15 16 12 11 13 14 15 14 17 25 33 38 38 39 37
31 31 31 31 31 20 19 19 17 17 22 24 8 11 11 8 18 10 8 11 8 9 12 9 12 11 12 13 15 13 14 15 15 12 15 16 16 14 15 19 28 38 40 38 35
32 31 31 32 22 22 20 17 17 16 23 22 11 17 9 10 18 9 10 11 12 10 12 12 12 10 12 12 14 15 10 11 11 17 18 16 19 16 14 14 29 33 40 38 35
33 31 29 28 27 21 19 19 15 16 27 15 11 11 7 9 9 10 11 13 10 11 13 12 10 12 11 12 14 11 10 6 8 14 15 16 18 16 18 19 19 18 14 11 22
33 31 28 25 24 22 23 18 16 22 31 16 11 10 8 12 14 9 13 14 14 14 11 8 12 12 12 13 12 11 14 18 18 17 19 17 19 18 22 18 16 13 11 6 3
34 31 28 24 26 23 20 17 27 32 19 20 15 10 11 11 10 10 10 11 12 15 13 14 9 11 12 15 13 18 18 17 18 20 19 16 18 16 18 20 18 10 7 7 3
36 32 31 29 26 24 22 26 39 33 28 18 16 12 13 11 16 9 10 9 11 12 14 13 14 10 12 13 14 16 17 17 18 20 19 16 19 18 19 21 18 15 10 11 2
38 33 36 32 29 26 30 43 42 33 25 22 16 18 19 15 14 13 12 14 7 8 12 12 13 12 12 13 14 14 16 16 18 17 19 17 16 14 18 19 18 17 17 15 9
36 37 41 29 23 26 39 50 40 33 22 22 28 22 21 17 15 13 13 12 8 9 11 11 14 10 12 13 12 14 14 17 17 19 20 18 17 18 17 19 20 19 17 19 21
37 39 35 27 24 37 49 48 41 35 27 27 28 27 25 21 18 17 16 15 9 7 10 11 12 14 13 12 11 12 13 14 15 16 18 19 16 13 15 18 20 19 19 20 22
37 49 31 22 40 43 50 45 41 44 36 31 27 28 27 22 21 20 17 18 8 5 10 10 12 13 13 13 11 10 11 12 14 14 15 16 14 14 16 18 19 20 20 22 23
38 44 36 25 45 53 47 50 48 46 40 36 32 28 26 23 23 21 19 16 9 9 8 5 12 14 17 15 12 11 9 11 13 14 12 14 14 14 15 17 17 20 20 21 23
36 44 41 36 39 47 52 52 54 48 44 40 35 30 28 28 25 21 20 17 14 13 10 9 13 14 15 16 14 13 9 7 10 12 12 7 10 11 12 14 15 18 20 20 21
38 44 36 47 55 49 46 46 53 53 49 41 39 37 31 30 27 24 21 18 18 12 13 13 18 16 16 10 13 11 7 5 3 4 8 9 7 9 10 12 13 16 18 19 20
41 42 36 42 51 49 50 52 55 52 45 49 47 39 36 34 30 27 23 23 22 19 17 16 20 17 20 18 9 9 3 4 4 4 4 4 7 5 7 9 12 14 16 18 19
37 36 40 45 45 54 55 54 56 47 47 49 47 41 43 41 32 30 26 22 20 19 18 17 16 15 17 19 19 22 2 3 4 3 4 5 7 5 7 11 11 12 14 16 17
Wind_Direction
334 329 320 317 317 317 309 307 304 298 292 295 295 293 287 282 282 344 304 345 343 331 334 339 355 10 12 30 26 18 16 1 1 352 345 337 326 327 322 317 321 326 325 308 304
336 327 316 317 316 311 308 300 301 292 285 297 289 289 286 285 310 302 0 26 346 333 334 332 28 41 40 38 39 40 19 12 14 352 346 336 328 313 312 308 313 315 318 307 308
340 323 314 316 315 309 304 297 292 286 287 291 280 276 275 294 299 295 51 48 356 341 335 336 77 68 38 41 50 48 23 21 5 360 355 342 335 335 316 306 308 311 310 298 297
333 325 320 308 315 311 303 294 288 281 279 278 274 271 272 344 289 5 54 37 329 334 318 352 20 38 39 37 45 31 43 28 14 14 5 356 349 340 332 317 326 316 305 296 296
320 320 317 312 313 305 298 289 282 277 275 272 259 282 326 316 314 24 45 26 328 333 344 10 14 32 37 43 37 46 43 35 21 16 17 2 1 354 324 311 316 309 306 309 302
316 311 310 311 308 303 297 287 281 280 280 272 285 315 339 298 8 52 47 2 354 345 357 9 24 39 44 54 47 43 45 29 23 27 21 17 13 0 333 332 343 329 314 314 314
310 307 309 303 306 304 298 288 282 281 290 311 332 336 325 45 28 74 46 4 4 7 11 28 26 36 45 47 42 43 36 37 33 38 39 29 19 355 329 332 332 323 314 311 313
302 303 302 302 300 302 297 288 278 292 305 333 348 332 305 325 26 50 55 336 6 20 33 36 32 37 46 43 36 43 46 29 37 44 51 36 20 358 345 341 330 319 315 310 310
298 299 296 298 301 300 296 285 284 303 312 339 339 323 300 336 13 76 40 10 11 17 35 23 24 30 37 36 36 42 29 29 35 44 54 39 26 5 350 345 332 324 317 309 306
286 297 295 293 297 300 296 288 308 296 323 329 311 306 295 355 18 35 19 14 1 358 359 11 18 26 38 39 28 33 29 32 31 41 45 36 29 2 354 352 342 328 320 313 306
286 287 294 292 292 299 306 321 311 305 299 331 326 310 318 328 351 25 37 10 357 348 328 346 18 51 58 57 47 40 37 34 38 56 35 44 36 26 16 353 338 327 318 314 304
288 288 286 290 289 288 309 309 314 311 287 224 208 253 295 340 334 5 44 20 11 354 347 350 73 74 50 37 39 39 36 37 57 60 53 52 39 36 27 7 344 328 317 312 306
286 286 285 285 287 298 297 303 314 315 294 284 287 292 304 340 298 352 67 15 78 2 2 27 13 38 30 34 35 41 45 42 46 48 61 54 43 44 39 26 5 345 328 319 314
283 286 285 285 290 292 291 302 311 312 287 283 294 282 291 310 298 8 28 29 31 60 17 8 9 38 28 35 39 38 69 57 53 41 45 56 34 44 43 25 15 7 348 336 323
282 282 285 286 278 284 291 297 303 300 270 293 286 290 300 296 327 326 355 359 40 60 19 17 32 23 31 41 40 55 57 70 75 53 51 53 43 48 39 26 21 24 23 27 303
279 279 282 281 278 279 286 295 285 271 259 281 286 274 275 280 294 329 324 340 360 9 41 93 22 35 41 34 52 57 52 54 59 55 48 51 49 47 38 34 29 27 39 48 310
277 276 275 275 269 280 282 275 258 253 275 270 273 270 266 281 294 306 327 344 8 1 23 18 61 48 43 28 43 31 40 40 43 44 47 57 54 51 46 48 48 45 60 75 296
274 272 269 265 267 276 267 255 250 255 254 278 269 262 264 272 280 298 315 336 347 12 20 32 22 71 65 41 35 40 43 43 39 40 46 62 53 55 58 58 61 71 91 95 63
278 267 263 262 260 261 253 246 245 250 260 256 261 261 262 267 281 281 295 307 1 25 23 37 36 57 65 48 47 43 37 57 48 52 49 60 65 75 66 67 69 80 90 101 119
273 266 260 260 252 248 247 247 248 249 265 255 251 259 256 258 265 273 284 303 320 335 353 19 16 48 45 48 51 47 57 35 44 40 42 50 57 58 66 69 74 83 98 102 105
271 264 267 246 242 242 243 245 247 247 255 255 253 254 259 259 259 266 281 290 299 328 338 357 359 12 26 35 42 42 38 38 44 50 43 44 61 90 83 79 79 87 99 105 107
265 254 265 234 236 244 241 242 247 243 247 255 260 259 255 254 258 262 265 280 286 312 322 342 352 355 3 19 60 56 43 39 31 40 48 51 62 93 90 82 87 92 105 100 103
263 257 257 248 240 241 247 244 244 243 243 246 252 255 258 251 259 261 264 278 278 289 315 340 329 342 347 356 13 23 55 38 30 31 42 47 59 89 96 79 95 95 109 106 97
262 255 248 243 247 247 245 244 241 243 245 245 248 253 254 251 258 257 259 269 272 281 298 312 313 317 339 351 14 8 40 64 38 23 28 58 58 97 104 106 96 104 106 111 109
253 252 252 245 238 243 249 247 242 240 239 241 244 242 245 248 249 254 257 262 270 274 283 293 295 303 314 344 348 358 19 45 101 68 32 44 83 103 128 120 111 109 108 109 109
251 248 253 254 241 240 243 245 242 240 239 236 240 239 241 246 246 251 253 257 262 263 268 281 288 300 305 317 342 349 147 166 161 163 181 166 188 113 117 102 104 116 117 118 120
252 256 253 251 248 239 240 242 242 243 241 241 239 240 241 245 252 258 256 257 258 256 255 268 278 295 304 307 317 321 12 115 49 63 157 181 176 30 61 127 128 128 127 128 127